�N����,����,�~����,�C��,���x,�C��,����,���ϕ���,�ő�u�ԕ���,�ő厞����,���˗�,�I�_���x,�n�����x,�ő啗���N��,DTYPE
"17/04/15","00:10",0.0,11.1,75.9,1011.2,298.3,0.8,1.8,354.1,0.00,7.1,12.7,"00:06:50",1
"17/04/15","00:20",0.0,11.1,77.2,1010.4,314.7,1.2,2.0,314.6,0.00,7.3,12.9,"00:12:22",1
"17/04/15","00:30",0.0,11.0,78.3,1010.7,310.0,1.1,1.8,239.3,0.00,7.4,12.8,"00:20:48",1
"17/04/15","00:40",0.0,11.0,78.6,1010.4,304.6,1.2,2.2,309.1,0.00,7.5,12.6,"00:36:58",1
"17/04/15","00:50",0.0,11.0,79.4,1010.4,324.5,1.2,2.2,324.9,0.00,7.6,12.5,"00:49:54",1
"17/04/15","01:00",0.0,11.2,80.7,1010.9,314.7,1.5,3.4,318.8,0.00,8.0,12.5,"00:56:20",1
"17/04/15","01:10",0.0,11.3,80.5,1010.7,309.3,1.1,2.4,341.8,0.00,8.1,12.6,"01:09:18",1
"17/04/15","01:20",0.0,11.1,81.3,1010.9,313.8,1.5,2.8,323.0,0.00,8.1,12.4,"01:14:24",1
"17/04/15","01:30",0.0,10.9,82.7,1010.7,289.7,1.3,2.9,318.6,0.00,8.1,12.3,"01:27:14",1
"17/04/15","01:40",0.0,11.4,82.2,1011.2,357.3,1.0,2.0,63.4,0.00,8.5,12.4,"01:31:10",1
"17/04/15","01:50",0.0,11.6,81.7,1010.9,325.4,1.3,3.5,318.0,0.00,8.6,12.4,"01:44:38",1
"17/04/15","02:00",0.0,12.5,79.8,1010.7,304.4,1.2,2.5,319.2,0.00,9.2,12.2,"01:59:28",1
"17/04/15","02:10",0.0,14.2,73.2,1010.9,271.8,1.8,4.4,313.6,0.00,9.5,12.3,"02:01:44",1
"17/04/15","02:20",0.0,15.2,67.8,1010.9,242.9,1.6,4.1,312.0,0.00,9.3,12.4,"02:11:04",1
"17/04/15","02:30",0.0,15.2,66.4,1010.7,298.5,1.1,2.8,319.3,0.00,9.0,12.4,"02:21:20",1
"17/04/15","02:40",0.0,15.3,66.5,1010.9,251.4,1.2,3.3,312.2,0.00,9.1,12.4,"02:34:56",1
"17/04/15","02:50",0.0,15.0,66.5,1010.4,265.4,0.8,2.8,310.1,0.00,8.9,12.2,"02:40:02",1
"17/04/15","03:00",0.0,14.4,68.9,1010.4,314.4,1.2,3.7,330.6,0.00,8.8,12.4,"02:50:08",1
"17/04/15","03:10",0.0,15.0,69.3,1010.4,231.8,1.6,3.6,231.3,0.00,9.5,12.1,"03:02:56",1
"17/04/15","03:20",0.0,14.9,68.7,1010.2,276.2,0.8,1.9,306.3,0.00,9.2,12.3,"03:14:48",1
"17/04/15","03:30",0.0,14.8,69.8,1010.7,249.7,1.2,4.3,283.8,0.00,9.4,12.1,"03:21:12",1
"17/04/15","03:40",0.0,14.1,71.3,1010.7,336.9,1.0,2.0,35.2,0.00,9.0,12.1,"03:30:48",1
"17/04/15","03:50",0.0,14.0,73.1,1010.7,314.5,1.3,3.1,351.6,0.00,9.3,12.2,"03:43:12",1
"17/04/15","04:00",0.0,13.2,74.8,1010.4,326.4,1.3,3.7,340.7,0.00,8.9,12.1,"03:51:44",1
"17/04/15","04:10",0.0,12.9,76.9,1010.4,298.9,0.8,1.9,251.9,0.00,9.0,12.0,"04:02:56",1
"17/04/15","04:20",0.0,13.5,76.9,1010.4,315.7,1.5,3.1,335.2,0.00,9.6,11.7,"04:10:18",1
"17/04/15","04:30",0.0,14.7,73.8,1010.2,314.9,2.0,3.7,341.1,0.00,10.1,12.1,"04:22:16",1
"17/04/15","04:40",0.0,15.1,71.6,1010.7,314.4,2.0,3.3,330.3,0.00,10.1,12.2,"04:32:24",1
"17/04/15","04:50",0.0,14.5,71.1,1010.2,185.5,1.0,2.9,325.9,0.00,9.4,12.1,"04:40:24",1
"17/04/15","05:00",0.0,13.8,74.2,1010.2,334.9,0.6,1.6,40.8,0.00,9.3,12.2,"04:55:28",1
"17/04/15","05:10",0.0,13.1,76.8,1010.2,322.3,1.5,2.6,340.8,0.00,9.2,12.1,"05:02:16",1
"17/04/15","05:20",0.0,12.7,78.9,1010.7,316.3,1.6,2.6,299.8,0.00,9.2,12.1,"05:12:56",1
"17/04/15","05:30",0.0,12.5,80.3,1010.7,310.7,1.5,2.1,320.4,0.00,9.2,12.0,"05:28:36",1
"17/04/15","05:40",0.0,12.4,81.3,1010.7,310.5,1.8,3.7,319.9,0.00,9.3,11.9,"05:33:38",1
"17/04/15","05:50",0.0,12.3,81.9,1010.4,306.8,1.3,2.7,312.8,0.00,9.3,11.8,"05:43:44",1
"17/04/15","06:00",0.0,12.1,82.7,1010.4,299.4,1.0,1.9,245.4,0.00,9.3,11.9,"05:59:04",1
"17/04/15","06:10",0.0,12.1,83.7,1010.7,306.6,1.0,1.3,251.8,0.00,9.5,11.8,"06:00:16",1
"17/04/15","06:20",0.0,12.2,84.3,1010.7,281.7,1.0,1.7,245.4,0.00,9.7,12.0,"06:12:16",1
"17/04/15","06:30",0.0,12.0,84.3,1010.4,342.8,1.7,2.2,336.8,0.00,9.5,12.0,"06:21:12",1
"17/04/15","06:40",0.0,11.7,85.3,1010.4,310.9,1.2,2.5,333.2,0.01,9.4,11.8,"06:30:58",1
"17/04/15","06:50",0.0,12.4,86.9,1010.7,314.6,0.6,1.8,308.1,0.04,10.3,11.8,"06:42:24",1
"17/04/15","07:00",0.0,13.7,84.4,1010.7,324.1,1.0,1.9,338.0,0.05,11.2,11.8,"06:50:56",1
"17/04/15","07:10",0.0,14.7,81.4,1011.4,313.5,0.6,1.3,335.7,0.08,11.6,12.1,"07:00:08",1
"17/04/15","07:20",0.0,15.5,79.6,1011.2,328.1,0.7,1.2,248.6,0.10,12.0,11.9,"07:10:08",1
"17/04/15","07:30",0.0,15.9,78.2,1011.6,292.7,0.7,1.2,354.9,0.11,12.2,12.2,"07:24:24",1
"17/04/15","07:40",0.0,16.3,76.3,1011.4,236.9,0.7,2.1,234.3,0.10,12.2,12.2,"07:32:16",1
"17/04/15","07:50",0.0,16.9,73.1,1011.2,181.9,1.0,2.2,151.6,0.17,12.1,12.4,"07:45:36",1
"17/04/15","08:00",0.0,16.8,72.8,1011.6,160.3,0.7,1.4,129.2,0.11,11.9,12.3,"07:53:12",1
"17/04/15","08:10",0.0,17.3,72.4,1011.4,77.6,0.6,1.3,14.1,0.12,12.3,12.5,"08:02:32",1
"17/04/15","08:20",0.0,17.8,69.4,1011.2,115.5,1.0,1.8,118.6,0.14,12.2,12.4,"08:12:16",1
"17/04/15","08:30",0.0,18.0,71.2,1011.2,125.7,0.7,2.2,117.6,0.13,12.8,12.8,"08:29:04",1
"17/04/15","08:40",0.0,18.4,70.4,1011.4,136.8,1.1,2.2,121.3,0.17,13.0,12.8,"08:36:08",1
"17/04/15","08:50",0.0,18.2,69.0,1010.7,133.5,1.3,2.8,123.6,0.16,12.5,12.8,"08:42:40",1
"17/04/15","09:00",0.0,18.9,70.4,1010.9,156.8,1.5,2.8,112.0,0.23,13.4,12.9,"08:57:28",1
"17/04/15","09:10",0.0,19.0,68.3,1010.7,171.0,2.1,4.3,169.0,0.25,13.1,13.0,"09:04:32",1
"17/04/15","09:20",0.0,19.0,67.2,1010.7,168.0,1.8,4.0,162.4,0.21,12.8,13.2,"09:19:04",1
"17/04/15","09:30",0.0,19.3,65.2,1010.9,171.5,1.7,4.0,128.0,0.13,12.6,13.3,"09:23:44",1
"17/04/15","09:40",0.0,19.5,62.4,1010.9,263.9,1.3,3.1,313.0,0.07,12.2,13.3,"09:38:48",1
"17/04/15","09:50",0.0,19.7,62.5,1010.4,258.2,1.6,3.6,230.2,0.13,12.4,13.3,"09:46:40",1
"17/04/15","10:00",0.0,19.7,61.9,1010.7,298.7,1.6,3.4,332.4,0.11,12.2,13.5,"09:56:08",1
"17/04/15","10:10",0.0,19.7,60.4,1010.7,264.1,1.6,2.9,251.1,0.06,11.9,13.3,"10:01:44",1
"17/04/15","10:20",0.0,19.6,60.4,1010.9,299.5,1.5,2.4,323.2,0.05,11.8,13.6,"10:11:20",1
"17/04/15","10:30",0.0,19.4,59.7,1010.9,260.8,1.3,3.1,228.1,0.04,11.4,13.4,"10:20:48",1
"17/04/15","10:40",0.0,19.4,58.7,1010.7,259.2,1.6,2.8,251.4,0.04,11.2,13.6,"10:36:48",1
"17/04/15","10:50",0.0,19.3,60.9,1010.7,232.9,1.1,2.6,200.5,0.05,11.6,13.5,"10:46:00",1
"17/04/15","11:00",0.0,19.2,61.6,1010.7,227.5,1.3,2.5,232.5,0.04,11.7,13.7,"10:50:32",1
"17/04/15","11:10",0.0,19.5,61.5,1010.2,238.4,0.8,1.3,226.6,0.10,12.0,13.7,"11:00:56",1
"17/04/15","11:20",0.0,19.4,61.8,1011.2,246.0,1.1,2.5,310.7,0.02,11.9,13.7,"11:18:32",1
"17/04/15","11:30",0.8,17.8,68.5,1011.6,311.3,2.8,4.8,325.9,0.03,12.0,13.6,"11:26:56",1
"17/04/15","11:40",0.0,16.5,75.2,1011.4,308.4,2.5,5.6,339.7,0.04,12.1,13.7,"11:30:16",1
"17/04/15","11:50",0.0,16.0,79.3,1011.2,291.1,1.7,2.7,297.8,0.03,12.5,13.8,"11:44:32",1
"17/04/15","12:00",0.0,15.6,82.3,1011.4,295.5,2.0,3.3,329.6,0.03,12.6,13.7,"11:59:40",1
"17/04/15","12:10",0.6,15.4,83.8,1011.4,304.8,2.2,4.2,325.1,0.03,12.7,13.6,"12:00:40",1
"17/04/15","12:20",0.2,15.1,85.7,1011.6,313.6,2.7,4.2,337.1,0.04,12.8,13.7,"12:14:50",1
"17/04/15","12:30",0.0,15.3,87.2,1011.6,324.1,2.8,4.2,340.7,0.18,13.2,13.6,"12:26:56",1
"17/04/15","12:40",0.0,16.4,85.8,1011.6,295.0,2.3,3.7,315.2,0.34,14.1,13.9,"12:32:48",1
"17/04/15","12:50",0.0,17.5,78.8,1011.2,300.6,2.1,3.6,313.0,0.46,13.8,13.9,"12:40:32",1
"17/04/15","13:00",0.0,17.7,72.8,1011.2,302.9,1.6,3.4,336.3,0.32,12.8,14.0,"12:59:28",1
"17/04/15","13:10",0.0,17.4,73.6,1011.2,312.2,1.8,3.5,327.4,0.23,12.7,14.0,"13:08:24",1
"17/04/15","13:20",0.0,18.5,73.3,1010.7,292.1,2.3,4.2,328.4,0.48,13.7,14.3,"13:16:32",1
"17/04/15","13:30",0.0,19.1,67.8,1010.7,279.1,2.2,5.6,328.4,0.57,13.1,14.3,"13:29:28",1
"17/04/15","13:40",0.0,19.5,67.3,1010.4,316.6,2.7,6.3,339.4,0.54,13.3,14.7,"13:31:12",1
"17/04/15","13:50",0.0,20.2,65.9,1010.4,260.7,1.6,4.3,224.6,0.54,13.7,15.0,"13:48:16",1
"17/04/15","14:00",0.0,20.2,61.1,1010.0,269.8,2.8,7.0,347.7,0.55,12.5,15.0,"13:52:40",1
"17/04/15","14:10",0.0,20.9,61.3,1010.0,292.8,1.8,4.3,342.7,0.52,13.2,15.3,"14:08:16",1
"17/04/15","14:20",0.0,21.3,59.8,1009.3,300.5,1.7,4.2,349.1,0.50,13.2,15.4,"14:19:44",1
"17/04/15","14:30",0.0,21.4,57.7,1009.0,270.1,1.8,4.9,342.5,0.49,12.8,15.6,"14:29:28",1
"17/04/15","14:40",0.0,21.9,56.1,1009.0,306.7,2.6,6.4,335.9,0.47,12.8,15.8,"14:33:20",1
"17/04/15","14:50",0.0,22.2,55.7,1009.3,269.0,2.3,4.8,228.3,0.46,13.0,16.1,"14:43:20",1
"17/04/15","15:00",0.0,21.7,52.9,1008.8,276.4,2.8,5.7,247.6,0.37,11.7,16.0,"14:56:16",1
"17/04/15","15:10",0.0,22.4,52.5,1008.8,290.5,2.1,5.8,341.8,0.34,12.3,16.0,"15:07:20",1
"17/04/15","15:20",0.0,22.2,51.6,1008.8,297.2,2.3,5.2,331.8,0.30,11.8,16.0,"15:18:56",1
"17/04/15","15:30",0.0,22.3,52.0,1008.1,304.4,2.2,5.1,347.6,0.33,12.0,16.2,"15:25:12",1
"17/04/15","15:40",0.0,22.4,51.1,1008.6,263.8,2.3,6.5,336.9,0.33,11.8,16.1,"15:31:04",1
"17/04/15","15:50",0.0,21.9,53.6,1008.3,232.8,1.7,4.2,233.7,0.15,12.1,16.3,"15:41:36",1
"17/04/15","16:00",0.0,21.9,53.8,1008.6,241.3,1.6,3.1,260.8,0.22,12.2,16.1,"15:54:40",1
"17/04/15","16:10",0.0,21.9,51.3,1008.8,280.8,1.8,6.0,346.3,0.13,11.4,16.1,"16:01:44",1
"17/04/15","16:20",0.0,21.6,53.3,1008.6,243.4,2.3,5.7,234.7,0.10,11.7,16.3,"16:16:16",1
"17/04/15","16:30",0.0,21.2,54.9,1009.0,248.6,1.7,4.0,235.7,0.04,11.8,16.2,"16:23:28",1
"17/04/15","16:40",0.0,21.0,55.0,1008.8,262.0,2.1,4.7,230.4,0.03,11.7,16.1,"16:36:56",1
"17/04/15","16:50",0.0,20.9,55.5,1008.6,253.0,1.8,3.6,286.8,0.02,11.7,16.2,"16:40:56",1
"17/04/15","17:00",0.0,20.7,57.3,1009.0,260.8,1.3,2.8,266.6,0.01,12.0,15.9,"16:54:40",1
"17/04/15","17:10",0.0,20.6,56.9,1009.3,267.7,1.6,2.9,308.1,0.00,11.8,15.9,"17:01:36",1
"17/04/15","17:20",0.4,20.3,61.9,1009.3,265.5,1.5,3.9,310.0,0.01,12.8,16.1,"17:19:52",1
"17/04/15","17:30",0.2,18.8,71.6,1009.5,314.4,3.2,5.1,320.6,0.02,13.6,15.8,"17:27:52",1
"17/04/15","17:40",0.0,17.5,76.9,1009.7,327.4,3.7,6.3,333.8,0.00,13.4,15.8,"17:33:28",1
"17/04/15","17:50",0.0,16.8,79.5,1009.5,291.7,2.3,4.5,334.0,0.00,13.3,15.6,"17:40:56",1
"17/04/15","18:00",0.2,16.5,83.0,1009.5,294.6,2.1,4.7,342.1,0.00,13.6,15.6,"17:59:28",1
"17/04/15","18:10",0.0,15.8,84.5,1009.5,333.6,2.8,4.5,330.7,0.00,13.2,15.5,"18:05:40",1
"17/04/15","18:20",0.0,15.6,86.3,1010.0,304.1,2.2,4.1,312.9,0.00,13.4,15.4,"18:14:38",1
"17/04/15","18:30",0.0,15.4,87.5,1010.7,294.9,2.6,4.9,304.2,0.00,13.4,15.3,"18:29:56",1
"17/04/15","18:40",0.2,15.3,88.5,1010.0,321.3,3.0,4.9,330.9,0.00,13.5,15.3,"18:38:00",1
"17/04/15","18:50",0.0,15.5,88.6,1009.5,300.0,2.0,3.9,330.5,0.00,13.7,15.1,"18:42:16",1
"17/04/15","19:00",0.0,15.3,88.4,1009.7,333.3,2.2,3.4,327.6,0.00,13.4,14.9,"18:53:52",1
"17/04/15","19:10",0.0,15.0,88.3,1010.0,215.8,1.0,1.6,307.8,0.00,13.1,15.0,"19:00:16",1
"17/04/15","19:20",0.0,15.1,88.1,1010.0,288.1,1.6,3.2,339.6,0.00,13.2,15.2,"19:16:54",1
"17/04/15","19:30",0.0,15.0,87.9,1010.0,323.3,2.1,3.5,341.2,0.00,13.1,14.9,"19:26:32",1
"17/04/15","19:40",0.0,14.7,89.2,1010.0,333.9,3.0,4.1,339.5,0.00,13.0,14.9,"19:36:10",1
"17/04/15","19:50",0.0,14.6,89.8,1010.4,329.6,2.7,4.3,337.1,0.00,13.0,14.9,"19:45:58",1
"17/04/15","20:00",1.4,14.6,90.2,1010.7,280.6,1.7,4.0,324.9,0.00,13.1,14.8,"19:51:40",1
"17/04/15","20:10",0.0,14.3,90.5,1010.7,285.9,1.8,3.2,264.5,0.00,12.8,14.6,"20:01:04",1
"17/04/15","20:20",0.0,14.2,91.1,1010.9,330.6,1.7,3.1,327.8,0.00,12.8,14.6,"20:10:20",1
"17/04/15","20:30",0.0,14.1,91.5,1010.7,356.8,1.1,2.7,317.9,0.00,12.8,14.7,"20:29:00",1
"17/04/15","20:40",0.0,13.9,92.0,1011.2,254.1,1.1,2.1,242.7,0.00,12.7,14.6,"20:36:48",1
"17/04/15","20:50",0.0,13.8,92.1,1011.4,295.7,0.7,1.7,323.1,0.00,12.6,14.7,"20:49:52",1
"17/04/15","21:00",0.0,13.7,92.8,1011.4,325.9,2.3,3.5,323.7,0.00,12.6,14.5,"20:57:20",1
"17/04/15","21:10",0.0,13.7,93.2,1011.2,305.7,1.7,3.1,317.8,0.00,12.7,14.3,"21:01:54",1
"17/04/15","21:20",0.0,13.6,93.4,1011.2,288.7,1.5,2.7,337.8,0.00,12.6,14.3,"21:10:08",1
"17/04/15","21:30",0.0,13.6,93.7,1011.2,276.9,1.5,2.7,320.9,0.00,12.6,14.4,"21:22:08",1
"17/04/15","21:40",0.0,13.5,93.6,1011.6,313.2,1.2,1.8,324.7,0.00,12.5,14.2,"21:37:28",1
"17/04/15","21:50",0.0,13.4,93.9,1011.2,320.9,1.3,1.9,315.5,0.00,12.5,14.1,"21:43:12",1
"17/04/15","22:00",0.0,13.4,94.5,1011.4,334.8,1.0,1.7,336.9,0.00,12.6,14.1,"21:59:12",1
"17/04/15","22:10",0.0,13.4,94.5,1011.2,317.8,1.6,2.7,337.5,0.00,12.6,14.1,"22:03:52",1
"17/04/15","22:20",0.0,13.4,94.7,1011.4,314.8,1.3,2.5,340.8,0.00,12.6,14.1,"22:12:56",1
"17/04/15","22:30",0.0,13.4,94.8,1010.9,301.6,0.8,1.2,330.5,0.00,12.6,14.0,"22:29:44",1
"17/04/15","22:40",0.0,13.5,94.9,1011.2,301.5,1.1,1.4,312.1,0.00,12.7,14.1,"22:33:28",1
"17/04/15","22:50",0.0,13.5,94.9,1011.2,286.7,1.1,1.6,312.0,0.00,12.7,13.9,"22:49:12",1
"17/04/15","23:00",0.0,13.6,94.9,1011.2,275.9,1.2,1.9,261.2,0.00,12.8,13.8,"22:56:48",1
"17/04/15","23:10",0.0,13.7,94.9,1011.4,321.8,1.0,1.7,338.4,0.00,12.9,13.9,"23:06:32",1
"17/04/15","23:20",0.0,13.7,94.9,1011.2,328.6,1.5,2.1,333.7,0.00,12.9,13.8,"23:15:52",1
"17/04/15","23:30",0.0,13.7,95.1,1011.4,324.8,1.3,1.7,340.1,0.00,13.0,13.8,"23:26:08",1
"17/04/15","23:40",0.0,13.7,95.2,1011.6,296.0,0.8,1.3,314.0,0.00,13.0,14.0,"23:30:16",1
"17/04/15","23:50",0.0,13.6,95.2,1011.6,288.9,1.1,1.3,305.8,0.00,12.9,13.9,"23:49:36",1
"17/04/15","24:00",0.0,13.6,95.2,1011.2,316.7,1.1,1.8,341.5,0.00,12.9,14.0,"23:58:32",1
